Regional Weather Roundup
Issued by NWS

Home | Current Version | Previous Version | Graphics & Text | Print | Product List | Glossary On
Versions: 1 2 3 4 5 6 7 8 9 10 11 12 13 14 15 16 17 18 19 20 21 22 23 24 25 26 27 28 29 30 31 32 33 34 35 36 37 38 39 40 41 42 43 44 45 46 47 48 49 50
000
ASUS43 KLOT 291208
RWRIL

ILLINOIS REGIONAL WEATHER ROUNDUP
NATIONAL WEATHER SERVICE CHICAGO/ROMEOVILLE IL
700 AM CDT SUN MAR 29 2015

NOTE: "FAIR" INDICATES FEW OR NO CLOUDS BELOW 12,000 FEET WITH NO
SIGNIFICANT WEATHER AND/OR OBSTRUCTIONS TO VISIBILITY.

* THESE STATIONS ARE NOT UNDER NWS QUALITY CONTROL. THEY ALSO MAY NOT
  REPORT WEATHER SUCH AS PRECIPITATION OR FOG.

ILZ001-002-007-009-015-016-024-291300-
NORTHWEST ILLINOIS

CITY           SKY/WX    TMP DP  RH WIND       PRES   REMARKS
MOLINE         MOCLDY    32  20  61 S15       30.02F WCI  22
6HR MIN TEMP:  30; 6HR MAX TEMP:  33;

STERLING*      FAIR      30  19  64 S7        30.08F WCI  23
SAVANNA*       PTCLDY    31  20  65 S14       30.02F WCI  20
$$

ILZ003-004-008-010-011-017-018-291300-
NORTH CENTRAL ILLINOIS

CITY           SKY/WX    TMP DP  RH WIND       PRES   REMARKS
ROCKFORD       MOCLDY    29  19  66 S15       30.11R WCI  18
6HR MIN TEMP:  28; 6HR MAX TEMP:  30;

FREEPORT*      PTCLDY    29  20  69 S16       30.06F WCI  17
ROCHELLE*      CLEAR     27  21  77 S15       30.11R WCI  15
DE KALB*       PTCLDY    26  19  75 S12       30.13R WCI  16
PERU*          CLEAR     30  21  70 S14       30.15R WCI  19
$$

ILZ005-006-012>014-019>023-291300-
NORTHEAST ILLINOIS

CITY           SKY/WX    TMP DP  RH WIND       PRES   REMARKS
CHICAGO-OHARE  MOCLDY    31  15  52 S16       30.13S WCI  20
6HR MIN TEMP:  23; 6HR MAX TEMP:  31;

CHICAGO-MIDWAY MOCLDY    32  16  51 S12       30.14F WCI  23
6HR MIN TEMP:  28; 6HR MAX TEMP:  32;

AURORA         PTCLDY    29  17  61 S14       30.14R WCI  18
6HR MIN TEMP:  24; 6HR MAX TEMP:  29;

LANSING*       PTCLDY    28  17  61 S13       30.17F WCI  18
JOLIET*        PTCLDY    32  19  59 S12       30.16R WCI  23
WAUKEGAN       MOCLDY    30  15  53 S17G24    30.11R WCI  18
6HR MIN TEMP:  25; 6HR MAX TEMP:  30;

DUPAGE AIRPORT MOCLDY    30  17  58 S16       30.13R WCI  19
6HR MIN TEMP:  23; 6HR MAX TEMP:  30;

KANKAKEE*      PTCLDY    28  19  66 S13G20    30.17F WCI  18
WHEELING       MOCLDY    31  14  49 S14       30.14S WCI  21
6HR MIN TEMP:  24; 6HR MAX TEMP:  31;

MORRIS*        PTCLDY    28  19  71 S10       30.14S WCI  18
ROMEOVILLE*    PTCLDY    28  19  66 S12       30.15R WCI  18
NORTHERLY ISL    N/A     31  15  52 S10         N/A  WCI  22
$$

LMZ740>746-291300-
SOUTHERN LAKE MICHIGAN

STATION/POSITION SKY/WX   TEMP    WIND        PRES    VSBY  WAVE
                          AIR SEA DIR/SP/G                  HT/PER
                          (F)     (DEG/KT/KT) (MB)    (MI)  (FT/S)
HARRISON CRIB              31     180/ 25/ 27   N/A
BURNHAM HARBOR             31     180/ 11/ 16   N/A
BURNS HARBOR               29     170/ 11/ 16 1022.4F
MICHIGAN CITY              28     150/ 12/ 15   N/A
$$

ILZ025>027-034>036-040-047-049-050-058-095>099-291300-
WEST-CENTRAL ILLINOIS

CITY           SKY/WX    TMP DP  RH WIND       PRES   REMARKS
QUINCY         PTCLDY    35  24  64 S15       30.06F WCI  25
GALESBURG*     MOCLDY    31  23  72 SE10      30.04F WCI  22
MACOMB*        MOCLDY    32  24  73 S17       30.10F WCI  21
JACKSONVILLE*  CLEAR     35  22  58 S13G20    30.14R WCI  26
PITTSFIELD*    PTCLDY    33  26  76 SE9       30.11F WCI  25
$$

ILZ028>032-037-038-041>044-048-051>054-059>061-291300-
CENTRAL ILLINOIS

CITY           SKY/WX    TMP DP  RH WIND       PRES   REMARKS
PONTIAC        PTCLDY    30  22  73 S15G21    30.15S WCI  19
BLOOMINGTON    PTCLDY    29  21  71 S20       30.14F WCI  16
DECATUR        CLEAR     31  20  63 S16       30.18F WCI  20
PEORIA         CLEAR     31  21  66 S13       30.15R WCI  21
6HR MIN TEMP:  31; 6HR MAX TEMP:  34;

LACON*         PTCLDY    31  18  59 S10       30.15R WCI  22
LINCOLN*       CLEAR     32  22  68 S13       30.16F WCI  22
SPRINGFIELD    CLEAR     32  21  64 S18G28    30.15F WCI  20
6HR MIN TEMP:  32; 6HR MAX TEMP:  34;

TAYLORVILLE    CLEAR     32  21  64 S15       30.18F WCI  22
$$

ILZ033-039-045-046-055>057-062-063-291300-
EAST-CENTRAL ILLINOIS

CITY           SKY/WX    TMP DP  RH WIND       PRES   REMARKS
CHAMPAIGN      CLEAR     29  20  69 S15       30.19F WCI  18
DANVILLE*      CLEAR     28  19  70 S8        30.19F WCI  20
RANTOUL*       CLEAR     29  22  75 S12       30.18F WCI  19
MATTOON        CLEAR     30  20  66 S13       30.20F WCI  20
PARIS*         CLEAR     28  22  79 SE10      30.24F WCI  19
$$

ILZ079-100>102-291300-
SOUTHWEST ILLINOIS

CITY           SKY/WX    TMP DP  RH WIND       PRES   REMARKS
BELLEVILLE     CLEAR     31  21  66 SE7       30.19F WCI  24
CAHOKIA*       FAIR      33  21  61 S8        30.18F WCI  26
SPARTA*        CLEAR     31  20  64 SE7       30.22F WCI  24
$$

ILZ064>066-069>071-074>076-080>082-084>086-088>090-092>094-291300-
SOUTH-CENTRAL ILLINOIS

CITY           SKY/WX    TMP DP  RH WIND       PRES   REMARKS
CARBONDALE     CLEAR     32  19  58 S9        30.25S WCI  24
6HR MIN TEMP:  28; 6HR MAX TEMP:  32;

CAIRO*         CLEAR     35  21  56 SE8       30.28R WCI  28
EFFINGHAM*     CLEAR     31  17  58 SE6       30.25F WCI  25
MARION         CLEAR     32  19  59 SE9       30.27R WCI  24
MT. VERNON     CLEAR     30  18  59 MISG      30.25S
CENTRALIA*     CLEAR     31  19  62 SE10      30.22F WCI  22
SALEM*         CLEAR     32  20  62 SE8       30.23F WCI  25
METROPOLIS*    CLEAR     33  22  64 SE5       30.27R WCI  29
$$

ILZ067-068-072-073-078-083-087-091-291300-
SOUTHEAST ILLINOIS

CITY           SKY/WX    TMP DP  RH WIND       PRES   REMARKS
LAWRENCEVILLE  CLEAR     27  20  75 S7        30.30R WCI  19
FLORA*         CLEAR     28  23  81 S7        30.26F WCI  21
FAIRFIELD*     CLEAR     31  22  68 SE7       30.26S WCI  25
HARRISBURG*    CLEAR     32  23  69 S3        30.30R
ROBINSON*      CLEAR     29  20  71 S6        30.30R WCI  22
CARMI*         CLEAR     29  22  74 SE9       30.28S WCI  21
$$

ABBREVIATIONS USED IN REMARKS
   TC - TEMPERATURE IN CELSIUS
  WCI - WIND CHILL INDEX
   HX - HEAT INDEX
  VSB - VISIBILITY
$$



USA.gov is the U.S. government's official web portal to all federal, state and local government web resources and services.